EW4089 Weather Reports


time (UTC)temp
C
wind
direction
speed
KPH
gust
KPH
rain 1hr
cm
rain 24hr
cm
rain mn
cm
humidity
%
barometer
mb
20260502130344 13 5 8.0 19.3 0.00 0.00 0.00 93 1017.8
20260502123732 13 331 11.3 20.9 0.00 0.00 0.00 93 1017.7
20260502123231 13 338 9.7 20.9 0.00 0.00 0.00 93 1017.6
20260502122710 13 348 9.7 17.7 0.00 0.00 0.00 94 1017.7
20260502122202 13 26 9.7 19.3 0.00 0.00 0.00 94 1017.7
20260502121642 13 5 9.7 19.3 0.00 0.00 0.00 94 1017.5
20260502121131 13 343 9.7 17.7 0.00 0.00 0.00 94 1017.4
20260502120832 13 351 11.3 19.3 0.00 0.00 0.00 94 1017.4
20260502120105 13 311 9.7 22.5 0.00 0.00 0.00 94 1017.3
20260502115556 13 355 9.7 22.5 0.00 0.00 0.00 95 1017.2
20260502115055 13 350 9.7 20.9 0.00 0.00 0.00 94 1017.1
20260502114802 13 336 6.4 14.5 0.00 0.00 0.00 94 1017.1
20260502114018 13 333 6.4 14.5 0.00 0.00 0.00 95 1017.0
20260502113720 13 355 6.4 14.5 0.00 0.00 0.00 94 1016.9
20260502112954 13 340 6.4 14.5 0.00 0.00 0.00 94 1016.7
20260502112425 13 351 8.0 14.5 0.00 0.00 0.00 94 1016.8
20260502111858 13 340 9.7 16.1 0.00 0.00 0.00 94 1016.6
20260502111350 13 349 9.7 16.1 0.00 0.00 0.00 94 1016.5
20260502110837 13 348 9.7 17.7 0.00 0.00 0.00 94 1016.5
20260502110339 13 335 8.0 17.7 0.00 0.00 0.00 94 1016.4
20260502105818 13 350 6.4 12.9 0.00 0.00 0.00 95 1016.3
20260502105316 13 342 8.0 12.9 0.00 0.00 0.00 95 1016.2
20260502105008 13 346 8.0 14.5 0.00 0.00 0.00 95 1016.2
20260502104218 13 5 6.4 12.9 0.00 0.00 0.00 95 1016.1
20260502103716 13 342 8.0 12.9 0.00 0.00 0.00 95 1016.0
20260502103148 13 340 6.4 12.9 0.00 0.00 0.00 95 1016.1
20260502102644 13 334 6.4 11.3 0.00 0.00 0.00 95 1016.0
20260502102138 13 355 6.4 11.3 0.00 0.00 0.00 95 1015.8
20260502101633 13 355 4.8 12.9 0.00 0.00 0.00 95 1015.5
20260502101349 13 355 4.8 12.9 0.00 0.00 0.00 95 1015.5
20260502100627 13 355 6.4 9.7 0.00 0.00 0.00 95 1015.4
20260502091321 14 342 8.0 14.5 0.00 0.00 0.00 93 1015.2
20260502090754 14 341 6.4 14.5 0.00 0.00 0.00 93 1015.3
20260502090249 14 19 6.4 14.5 0.00 0.00 0.00 93 1015.3
20260502071215 14 11 8.0 19.3 0.00 0.00 0.00 93 1014.4
20260502070714 14 17 11.3 19.3 0.00 0.00 0.00 93 1014.4
20260502070427 14 21 11.3 25.7 0.00 0.00 0.00 93 1014.4
20260502065659 14 355 12.9 25.7 0.00 0.00 0.00 93 1014.5
20260502065408 14 46 11.3 22.5 0.00 0.00 0.00 93 1014.6
20260502064855 14 351 11.3 20.9 0.00 0.00 0.00 93 1014.5
20260502064117 14 32 11.3 20.9 0.00 0.00 0.00 93 1014.6
20260502063554 14 350 12.9 29.0 0.00 0.00 0.00 93 1014.6
20260502063052 14 329 14.5 29.0 0.00 0.00 0.00 93 1014.6
20260502062528 14 5 14.5 25.7 0.00 0.00 0.00 93 1014.5
20260502062021 14 20 12.9 27.4 0.00 0.00 0.00 93 1014.4
20260502061454 14 13 12.9 27.4 0.00 0.00 0.00 93 1014.4
20260502061216 14 355 16.1 29.0 0.00 0.00 0.00 93 1014.5
20260502060424 14 326 12.9 29.0 0.00 0.00 0.00 93 1014.6
20260502055924 14 320 12.9 20.9 0.00 0.00 0.00 93 1014.5
20260502055402 14 0 12.9 25.7 0.00 0.00 0.00 93 1014.4
20260502055129 14 329 12.9 25.7 0.00 0.00 0.00 93 1014.4
20260502054344 14 348 12.9 25.7 0.00 0.00 0.00 93 1014.3
20260502053835 14 318 11.3 25.7 0.00 0.00 0.00 93 1014.3
20260502053312 15 14 11.3 22.5 0.00 0.00 0.00 94 1014.1
20260502052807 15 22 9.7 22.5 0.00 0.00 0.00 93 1014.2
20260502052305 15 35 11.3 19.3 0.00 0.00 0.00 93 1014.2
20260502051754 15 47 12.9 29.0 0.00 0.00 0.00 93 1014.1
20260502051234 15 346 11.3 29.0 0.00 0.00 0.00 93 1014.0
20260502050723 15 53 11.3 25.7 0.00 0.00 0.00 93 1013.9
20260502050212 15 30 11.3 25.7 0.00 0.00 0.00 93 1013.8
20260502045712 15 345 14.5 32.2 0.00 0.00 0.00 93 1013.8
20260502045407 15 290 12.9 32.2 0.00 0.00 0.00 93 1013.6
20260502044840 15 5 9.7 19.3 0.00 0.00 0.00 94 1013.5
20260502044057 15 22 11.3 25.7 0.00 0.00 0.00 93 1013.5
20260502043554 15 355 11.3 25.7 0.00 0.00 0.00 93 1013.3
20260502043025 15 355 11.3 20.9 0.00 0.00 0.00 93 1013.3
20260502042502 15 331 14.5 33.8 0.00 0.00 0.00 93 1013.3
20260502042158 15 355 14.5 33.8 0.00 0.00 0.00 93 1013.4
20260502041436 15 5 12.9 32.2 0.00 0.00 0.00 93 1013.4
20260502041201 15 0 12.9 27.4 0.00 0.00 0.00 94 1013.3
20260502040437 15 19 14.5 27.4 0.00 0.00 0.00 93 1013.4
20260502035906 15 338 14.5 30.6 0.00 0.00 0.00 93 1013.3
20260502035401 15 331 14.5 32.2 0.00 0.00 0.00 94 1013.3
20260502034850 15 337 14.5 32.2 0.00 0.00 0.00 94 1013.2
20260502034550 15 345 12.9 27.4 0.00 0.00 0.00 94 1013.2
20260502033813 15 344 14.5 27.4 0.00 0.00 0.00 94 1013.2
20260502033245 15 348 12.9 29.0 0.00 0.00 0.00 95 1013.3
20260502032206 15 324 12.9 25.7 0.00 0.00 0.00 95 1013.1
20260502031702 16 320 11.3 25.7 0.00 0.00 0.00 95 1013.1
20260502031201 16 350 11.3 22.5 0.00 0.00 0.00 95 1012.9
20260502030639 16 11 11.3 22.5 0.00 0.00 0.00 96 1012.9
20260502030138 16 22 11.3 20.9 0.00 0.00 0.00 96 1012.8
20260502025636 16 343 11.3 19.3 0.00 0.00 0.00 96 1012.7
20260502025107 16 355 11.3 24.1 0.00 0.00 0.00 96 1012.7
20260502024607 16 341 11.3 22.5 0.00 0.00 0.00 96 1012.5
20260502024044 16 331 11.3 20.9 0.00 0.00 0.00 96 1012.2
20260502023519 16 22 11.3 24.1 0.00 0.00 0.00 96 1012.1
20260502022942 16 32 12.9 27.4 0.00 0.00 0.00 96 1012.2
20260502022416 16 31 11.3 27.4 0.00 0.00 0.00 96 1011.9
20260502021910 16 5 9.7 22.5 0.00 0.00 0.00 96 1011.8
20260502021410 16 9 11.3 20.9 0.00 0.00 0.00 96 1011.6
20260502020911 16 13 11.3 22.5 0.00 0.00 0.00 96 1011.5
20260502020401 16 5 11.3 22.5 0.00 0.00 0.00 97 1011.4
20260502015858 16 334 12.9 24.1 0.00 0.00 0.00 97 1011.1
20260502015341 16 348 11.3 24.1 0.00 0.00 0.00 97 1011.3
20260502014839 16 342 11.3 22.5 0.00 0.00 0.00 97 1011.2
20260502014602 16 11 9.7 24.1 0.00 0.00 0.00 97 1011.0
20260502013838 16 17 11.3 24.1 0.00 0.00 0.00 97 1011.0
20260502013336 16 5 12.9 27.4 0.00 0.00 0.00 97 1010.8
20260502012833 16 11 11.3 27.4 0.00 0.00 0.00 97 1010.8
20260502012331 16 31 9.7 24.1 0.00 0.00 0.00 97 1010.7
20260502011832 16 23 9.7 22.5 0.00 0.00 0.00 97 1010.7
20260502011326 16 5 11.3 27.4 0.00 0.00 0.00 97 1010.6
20260502011027 16 32 11.3 27.4 0.00 0.00 0.00 97 1010.4
20260502010502 16 13 9.7 25.7 0.00 0.00 0.00 97 1010.1
20260502005733 16 325 11.3 25.7 0.00 0.00 0.00 97 1010.0
20260502005222 16 5 11.3 25.7 0.00 0.00 0.00 97 1010.3
20260502004709 16 31 12.9 25.7 0.00 0.00 0.00 97 1009.9
20260502004144 16 18 12.9 27.4 0.00 0.00 0.00 97 1010.1
20260502003612 16 355 11.3 27.4 0.00 0.00 0.00 97 1009.9
20260502003047 16 5 12.9 27.4 0.00 0.00 0.00 97 1010.6
20260502002547 16 37 12.9 27.4 0.00 0.00 0.00 97 1010.5
20260502002038 16 17 14.5 30.6 0.00 0.00 0.00 97 1010.4
20260502001537 16 24 17.7 33.8 0.00 0.00 0.00 97 1010.7
20260502001009 16 340 16.1 33.8 0.00 0.00 0.00 97 1010.6
20260502000508 16 0 14.5 29.0 0.00 0.00 0.00 97 1010.4
20260502000007 16 13 12.9 27.4 0.00 0.00 0.00 97 1009.9
20260501235509 17 342 14.5 32.2 0.00 0.00 0.00 97 1010.1
20260501235005 17 355 16.1 32.2 0.00 0.00 0.00 97 1009.9
20260501234444 17 355 16.1 30.6 0.00 0.00 0.00 97 1010.1
20260501233940 17 40 14.5 27.4 0.00 0.00 0.00 97 1009.9
20260501233417 17 330 16.1 29.0 0.00 0.00 0.00 97 1009.5
20260501232914 17 327 16.1 29.0 0.00 0.00 0.00 97 1009.3
20260501232355 17 318 16.1 30.6 0.00 0.00 0.00 97 1009.2
20260501231855 17 0 14.5 30.6 0.00 0.00 0.00 97 1008.7
20260501231347 17 340 17.7 43.5 0.00 0.00 0.00 97 1009.1
20260501230820 17 331 17.7 43.5 0.00 0.00 0.00 97 1009.3
20260501230254 17 346 17.7 37.0 0.00 0.00 0.00 97 1008.9
20260501225741 17 327 20.9 37.0 0.00 0.00 0.00 97 1009.1
20260501225240 17 321 16.1 33.8 0.00 0.00 0.00 96 1009.0
20260501224740 18 323 14.5 33.8 0.00 0.00 0.00 97 1009.2
20260501224220 18 315 12.9 25.7 0.00 0.00 0.00 97 1008.6
20260501223655 18 342 14.5 27.4 0.00 0.00 0.00 97 1007.4
20260501223152 18 27 17.7 35.4 0.00 0.00 0.00 97 1006.0
20260501222647 18 30 17.7 35.4 0.00 0.00 0.00 96 1006.0
20260501222145 18 22 14.5 30.6 0.00 0.00 0.00 97 1006.5
20260501221640 18 49 16.1 30.6 0.00 0.00 0.00 96 1006.5
20260501221143 18 19 16.1 30.6 0.00 0.00 0.00 96 1006.5
20260501220638 18 33 14.5 29.0 0.00 0.00 0.00 96 1006.7
20260501220106 18 38 11.3 25.7 0.00 0.00 0.00 96 1007.1
20260501215549 18 26 9.7 19.3 0.00 0.00 0.00 97 1007.2
20260501215051 18 19 9.7 19.3 0.00 0.00 0.00 97 1007.4
20260501214550 18 17 11.3 20.9 0.00 0.00 0.00 97 1007.4
20260501214029 18 21 11.3 20.9 0.00 0.00 0.00 97 1007.1
20260501213732 18 41 11.3 24.1 0.00 0.00 0.00 97 1007.1
20260501212950 18 355 9.7 20.9 0.00 0.00 0.00 97 1007.1
20260501211915 18 18 11.3 24.1 0.00 0.00 0.00 97 1007.2
20260501211406 18 355 9.7 22.5 0.00 0.00 0.00 97 1007.2
20260501210902 18 23 9.7 22.5 0.00 0.00 0.00 97 1007.2
20260501210354 18 338 9.7 22.5 0.00 0.00 0.00 97 1007.2
20260501205849 18 340 11.3 22.5 0.00 0.00 0.00 97 1007.4
20260501205322 18 318 12.9 22.5 0.00 0.00 0.00 97 1007.4
20260501204759 18 13 11.3 20.9 0.00 0.00 0.00 97 1007.4
20260501204230 18 19 9.7 22.5 0.00 0.00 0.00 97 1007.5
20260501203701 18 22 11.3 22.5 0.00 0.00 0.00 98 1007.7
20260501203159 18 24 12.9 27.4 0.00 0.00 0.00 97 1007.6
20260501202156 18 5 11.3 24.1 0.00 0.00 0.00 97 1007.8
20260501201649 18 53 11.3 24.1 0.00 0.00 0.00 97 1007.8
20260501201408 18 5 12.9 24.1 0.00 0.00 0.00 97 1007.1
20260501200120 18 315 12.9 24.1 0.00 0.00 0.00 97 1007.7
20260501195621 18 330 11.3 20.9 0.00 0.00 0.00 97 1008.1
20260501195112 18 337 11.3 17.7 0.00 0.00 0.00 97 1007.6
20260501194805 18 295 8.0 17.7 0.00 0.00 0.00 97 1007.5
20260501194031 18 315 6.4 16.1 0.00 0.00 0.00 97 1007.1
20260501193729 18 76 8.0 17.7 0.00 0.00 0.00 97 1007.3
20260501193001 18 69 9.7 19.3 0.00 0.00 0.00 97 1008.4
20260501192436 18 306 11.3 38.6 0.00 0.00 0.00 97 1007.1
20260501191906 18 30 17.7 38.6 0.00 0.00 0.00 97 1005.5
20260501191344 18 39 20.9 38.6 0.00 0.00 0.00 97 1004.5
20260501190810 18 39 16.1 38.6 0.00 0.00 0.00 97 1004.4
20260501190051 18 55 14.5 32.2 0.00 0.00 0.00 97 1004.9
20260501185747 18 49 16.1 29.0 0.00 0.00 0.00 97 1005.2
20260501185017 18 31 17.7 30.6 0.00 0.00 0.00 97 1005.5
20260501184517 18 36 16.1 30.6 0.00 0.00 0.00 97 1005.5
20260501184021 18 32 12.9 27.4 0.00 0.00 0.00 97 1006.2
20260501183511 18 49 12.9 27.4 0.00 0.00 0.00 97 1006.5
20260501182950 18 59 12.9 27.4 0.00 0.00 0.00 97 1006.9
20260501182451 18 75 11.3 24.1 0.00 0.00 0.00 97 1006.8
20260501182206 18 55 9.7 17.7 0.00 0.00 0.00 97 1007.3
20260501181433 18 56 6.4 16.1 0.00 0.00 0.00 97 1007.7
20260501180930 18 14 8.0 16.1 0.00 0.00 0.00 97 1008.0
20260501175829 18 74 14.5 30.6 0.00 0.00 0.00 97 1007.3
20260501175307 18 61 9.7 22.5 0.00 0.00 0.00 97 1007.5
20260501174802 18 344 9.7 19.3 0.00 0.00 0.00 97 1008.4
20260501174230 18 349 14.5 30.6 0.00 0.00 0.00 97 1008.1
20260501173723 18 49 17.7 30.6 0.00 0.00 0.00 97 1006.8
20260501173218 18 81 12.9 29.0 0.00 0.00 0.00 97 1006.7
20260501172719 18 47 12.9 22.5 0.00 0.00 0.00 97 1007.2
20260501172444 18 20 11.3 24.1 0.00 0.00 0.00 97 1007.6
20260501171917 18 58 12.9 24.1 0.00 0.00 0.00 97 1007.6
20260501171423 18 42 14.5 27.4 0.00 0.00 0.00 97 1007.2
20260501170849 18 26 14.5 27.4 0.00 0.00 0.00 97 1007.6
20260501170319 18 41 14.5 24.1 0.00 0.00 0.00 96 1007.7
20260501165808 18 42 11.3 22.5 0.00 0.00 0.00 96 1007.9
20260501165249 18 346 9.7 17.7 0.00 0.00 0.00 96 1008.3
20260501164514 18 355 11.3 25.7 0.00 0.00 0.00 96 1008.5
20260501164004 18 5 14.5 25.7 0.00 0.00 0.00 96 1008.6
20260501163700 18 30 16.1 27.4 0.00 0.00 0.00 96 1008.4
20260501162927 18 50 12.9 27.4 0.00 0.00 0.00 96 1008.5
20260501162648 18 30 12.9 25.7 0.00 0.00 0.00 96 1008.7
20260501162143 18 28 12.9 25.7 0.00 0.00 0.00 95 1008.9
20260501161421 18 24 12.9 24.1 0.00 0.00 0.00 95 1008.8
20260501160923 18 41 16.1 24.1 0.00 0.00 0.00 95 1008.8
20260501160419 18 40 16.1 8.0 0.00 0.00 0.00 95 1008.9
20260501155914 18 46 12.9 30.6 0.00 0.00 0.00 95 1008.9
20260501155412 18 13 12.9 29.0 0.00 0.00 0.00 95 1009.3
20260501154405 18 313 11.3 29.0 0.00 0.00 0.00 94 1009.4
20260501153903 18 32 14.5 32.2 0.00 0.00 0.00 94 1009.4
20260501153404 18 331 16.1 32.2 0.00 0.00 0.00 94 1009.6
20260501152830 19 0 16.1 29.0 0.00 0.00 0.00 94 1010.0
20260501152325 19 294 12.9 29.0 0.00 0.00 0.00 95 1009.7
20260501151822 19 333 9.7 19.3 0.00 0.00 0.00 95 1009.2
20260501151253 19 18 11.3 19.3 0.00 0.00 0.00 95 1008.6
20260501150722 19 65 11.3 20.9 0.00 0.00 0.00 95 1008.5
20260501150154 19 21 11.3 19.3 0.00 0.00 0.00 95 1008.5
20260501145655 19 31 12.9 29.0 0.00 0.00 0.00 95 1008.2
20260501145148 19 30 14.5 29.0 0.00 0.00 0.00 95 1008.1
20260501144618 19 33 14.5 29.0 0.00 0.00 0.00 95 1008.3
20260501144054 19 17 14.5 29.0 0.00 0.00 0.00 95 1008.1
20260501143546 19 30 14.5 25.7 0.00 0.00 0.00 95 1008.3
20260501143028 19 71 12.9 24.1 0.00 0.00 0.00 95 1008.3
20260501142517 19 13 11.3 24.1 0.00 0.00 0.00 95 1008.5
20260501142213 19 24 11.3 24.1 0.00 0.00 0.00 95 1008.7